TimePST,TemperatureF,Dew PointF,Humidity,Sea Level PressureIn,VisibilityMPH,Wind Direction,Wind SpeedMPH,Gust SpeedMPH,PrecipitationIn,Events,Conditions,WindDirDegrees,DateUTC
12:53 AM,42.1,39.0,89,30.22,10.0,NW,5.8,-,N/A,,Clear,320,2012-03-04 08:53:00
1:53 AM,43.0,39.0,86,30.21,10.0,Calm,Calm,-,N/A,,Clear,0,2012-03-04 09:53:00
2:53 AM,42.1,39.0,89,30.20,10.0,Calm,Calm,-,N/A,,Clear,0,2012-03-04 10:53:00
3:53 AM,39.9,37.9,93,30.20,10.0,Calm,Calm,-,N/A,,Clear,0,2012-03-04 11:53:00
4:53 AM,39.0,36.0,89,30.19,10.0,Calm,Calm,-,N/A,,Clear,0,2012-03-04 12:53:00
5:53 AM,39.0,36.0,89,30.20,10.0,Calm,Calm,-,N/A,,Clear,0,2012-03-04 13:53:00
6:53 AM,37.9,36.0,93,30.20,8.0,NNW,3.5,-,N/A,,Clear,340,2012-03-04 14:53:00
7:02 AM,37.4,37.4,100,30.22,1.5,Calm,Calm,-,N/A,,Clear,0,2012-03-04 15:02:00
7:11 AM,37.4,37.4,100,30.22,0.8,NNW,3.5,-,N/A,,Clear,340,2012-03-04 15:11:00
7:15 AM,37.4,37.4,100,30.22,10.0,Calm,Calm,-,N/A,,Clear,0,2012-03-04 15:15:00
7:53 AM,43.0,41.0,93,30.20,10.0,Calm,Calm,-,N/A,,Clear,0,2012-03-04 15:53:00
8:53 AM,50.0,44.1,80,30.20,10.0,Calm,Calm,-,N/A,,Clear,0,2012-03-04 16:53:00
9:53 AM,57.0,46.0,67,30.19,10.0,Calm,Calm,-,N/A,,Clear,0,2012-03-04 17:53:00
10:53 AM,62.1,45.0,53,30.18,10.0,Calm,Calm,-,N/A,,Clear,0,2012-03-04 18:53:00
11:53 AM,66.9,45.0,45,30.15,10.0,South,3.5,-,N/A,,Clear,170,2012-03-04 19:53:00
12:53 PM,70.0,46.0,42,30.12,10.0,SE,3.5,-,N/A,,Clear,140,2012-03-04 20:53:00
1:53 PM,73.0,46.9,39,30.09,10.0,Calm,Calm,-,N/A,,Clear,0,2012-03-04 21:53:00
2:53 PM,73.9,46.0,37,30.06,10.0,South,5.8,-,N/A,,Clear,180,2012-03-04 22:53:00
3:53 PM,75.0,46.9,37,30.05,10.0,SSW,6.9,-,N/A,,Clear,200,2012-03-04 23:53:00
4:53 PM,71.1,46.9,42,30.04,10.0,South,8.1,-,N/A,,Clear,180,2012-03-05 00:53:00
5:53 PM,68.0,44.1,42,30.04,10.0,SW,3.5,-,N/A,,Clear,220,2012-03-05 01:53:00
6:53 PM,60.1,42.1,51,30.04,10.0,South,3.5,-,N/A,,Clear,170,2012-03-05 02:53:00
7:53 PM,54.0,44.1,69,30.04,10.0,SE,4.6,-,N/A,,Clear,140,2012-03-05 03:53:00
8:53 PM,53.1,43.0,69,30.05,10.0,Calm,Calm,-,N/A,,Clear,0,2012-03-05 04:53:00
9:53 PM,52.0,42.1,69,30.06,10.0,SSE,3.5,-,N/A,,Clear,150,2012-03-05 05:53:00
10:53 PM,48.9,42.1,77,30.08,10.0,Calm,Calm,-,N/A,,Clear,0,2012-03-05 06:53:00
11:53 PM,44.1,41.0,89,30.07,10.0,Calm,Calm,-,N/A,,Clear,0,2012-03-05 07:53:00